CW7549 Weather Reports


time (UTC)temp
F
wind
direction
speed
knots
gust
knots
rain 1hr
in
rain 24hr
in
rain mn
in
humidity
%
barometer
mb
20260510175249 56 12 7.0 13.0 0.00 0.00 0.00 66 1011.0
20260510174243 57 28 6.1 11.3 0.00 0.00 0.00 65 1010.8
20260510173255 57 59 3.5 11.3 0.00 0.00 0.00 65 1010.8
20260510172246 58 40 4.3 11.3 0.00 0.00 0.00 64 1010.8
20260510171241 58 360 10.4 14.8 0.00 0.00 0.00 64 1010.7
20260510170237 59 5 4.3 11.3 0.00 0.00 0.00 63 1010.6
20260510165249 59 76 8.7 13.0 0.00 0.00 0.00 62 1010.6
20260510164239 60 26 7.0 14.8 0.00 0.00 0.00 62 1010.6
20260510163229 60 22 7.8 14.8 0.00 0.00 0.00 61 1010.5
20260510162310 60 47 4.3 11.3 0.00 0.00 0.00 61 1010.5
20260510161244 61 59 7.8 15.6 0.00 0.00 0.00 59 1010.5
20260510160238 61 34 6.1 15.6 0.00 0.00 0.00 59 1010.6
20260510155233 62 320 6.1 15.6 0.00 0.00 0.00 59 1010.6
20260510154251 62 57 7.0 13.9 0.00 0.00 0.00 58 1010.5
20260510153305 63 52 6.1 13.9 0.00 0.00 0.00 59 1010.6
20260510152235 63 5 8.7 13.9 0.00 0.00 0.00 57 1010.6
20260510151251 64 341 6.1 16.5 0.00 0.00 0.00 55 1010.6
20260510150231 64 30 1.7 11.3 0.00 0.00 0.00 56 1010.9
20260510145247 64 334 4.3 13.9 0.00 0.00 0.00 54 1010.9
20260510144248 65 71 6.1 16.5 0.00 0.00 0.00 53 1010.8
20260510143240 65 60 6.1 14.8 0.00 0.00 0.00 52 1011.0
20260510142240 65 17 7.8 12.2 0.00 0.00 0.00 51 1011.0
20260510141238 65 65 5.2 15.6 0.00 0.00 0.00 51 1011.2
20260510140259 65 355 2.6 14.8 0.00 0.00 0.00 53 1011.4
20260510135249 65 79 7.0 13.9 0.00 0.00 0.00 52 1011.4
20260510134232 65 36 7.0 12.2 0.00 0.00 0.00 53 1011.4
20260510133241 65 27 4.3 10.4 0.00 0.00 0.00 53 1011.4
20260510132232 64 41 6.1 10.4 0.00 0.00 0.00 52 1011.4
20260510131248 64 40 6.1 14.8 0.00 0.00 0.00 54 1011.5
20260510130240 65 59 6.1 13.0 0.00 0.00 0.00 52 1011.6
20260510125232 65 26 5.2 13.9 0.00 0.00 0.00 50 1011.6
20260510124245 65 49 4.3 13.0 0.00 0.00 0.00 52 1011.6
20260510123246 64 71 5.2 13.9 0.00 0.00 0.00 50 1011.7
20260510122240 64 57 2.6 11.3 0.00 0.00 0.00 50 1011.7
20260510121300 64 55 7.8 13.9 0.00 0.00 0.00 50 1011.8
20260510120241 64 65 3.5 10.4 0.00 0.00 0.00 51 1012.0
20260510115233 64 40 6.1 13.0 0.00 0.00 0.00 51 1012.0
20260510114232 64 51 7.8 16.5 0.00 0.00 0.00 50 1012.0
20260510113246 64 32 6.1 13.0 0.00 0.00 0.00 52 1012.2
20260510112257 63 65 5.2 11.3 0.00 0.00 0.00 53 1012.2
20260510111248 63 59 7.8 13.0 0.00 0.00 0.00 55 1012.5
20260510110240 63 88 6.1 13.0 0.00 0.00 0.00 53 1012.5
20260510105233 63 28 7.0 13.0 0.00 0.00 0.00 56 1012.5
20260510104248 62 17 6.1 16.5 0.00 0.00 0.00 56 1012.6
20260510103242 61 46 7.0 13.0 0.00 0.00 0.00 56 1012.5
20260510102243 62 68 8.7 14.8 0.00 0.00 0.00 55 1012.5
20260510101232 61 30 7.8 13.9 0.00 0.00 0.00 57 1012.6
20260510100244 61 45 9.6 13.9 0.00 0.00 0.00 58 1012.5
20260510095257 60 36 6.1 18.2 0.00 0.00 0.00 60 1012.5
20260510094232 59 32 8.7 14.8 0.00 0.00 0.00 60 1012.6
20260510093302 59 28 7.8 12.2 0.00 0.00 0.00 62 1012.7
20260510092235 58 53 7.0 13.0 0.00 0.00 0.00 62 1012.6
20260510091242 58 350 7.8 12.2 0.00 0.00 0.00 63 1012.6
20260510090234 57 19 6.1 15.6 0.00 0.00 0.00 64 1012.6
20260510085308 57 5 7.0 14.8 0.00 0.00 0.00 65 1012.6
20260510084304 56 5 5.2 16.5 0.00 0.00 0.00 66 1012.7
20260510083243 56 32 8.7 14.8 0.00 0.00 0.00 67 1012.5
20260510082235 55 57 3.5 13.9 0.00 0.00 0.00 68 1012.5
20260510081253 54 34 7.0 14.8 0.00 0.00 0.00 69 1012.4
20260510080307 54 63 4.3 14.8 0.00 0.00 0.00 70 1012.3
20260510075233 54 106 4.3 14.8 0.00 0.00 0.00 71 1012.3
20260510074235 53 37 10.4 17.4 0.00 0.00 0.00 72 1012.2
20260510073304 52 21 12.2 18.2 0.00 0.00 0.00 74 1012.1
20260510072243 52 82 9.6 14.8 0.00 0.00 0.00 75 1012.1
20260510071238 51 54 7.8 19.1 0.00 0.00 0.00 76 1012.0
20260510070257 50 53 9.6 16.5 0.00 0.00 0.00 76 1011.9
20260510065253 50 49 9.6 18.2 0.00 0.00 0.00 76 1011.9
20260510064247 50 53 11.3 19.1 0.00 0.00 0.00 76 1011.7
20260510063257 50 360 7.0 16.5 0.00 0.00 0.00 75 1011.6
20260510062246 50 42 12.2 18.2 0.00 0.00 0.00 75 1011.6
20260510061245 50 56 8.7 15.6 0.00 0.00 0.00 74 1011.6
20260510060241 50 19 7.0 12.2 0.00 0.00 0.00 74 1011.5
20260510055244 50 63 7.8 15.6 0.00 0.00 0.00 73 1011.5
20260510054239 50 45 7.8 16.5 0.00 0.00 0.00 73 1011.4
20260510053249 50 38 8.7 13.9 0.00 0.00 0.00 73 1011.4
20260510052244 50 51 10.4 14.8 0.00 0.00 0.00 73 1011.4
20260510051233 50 40 10.4 13.9 0.00 0.00 0.00 72 1011.4
20260510050249 51 24 6.1 16.5 0.00 0.00 0.00 72 1011.4
20260510045243 51 30 8.7 17.4 0.00 0.00 0.00 71 1011.4
20260510044236 51 62 7.8 18.2 0.00 0.00 0.00 70 1011.2
20260510043252 52 59 8.7 13.9 0.00 0.00 0.00 70 1011.3
20260510042244 52 37 8.7 16.5 0.00 0.00 0.00 69 1011.3
20260510041258 52 35 5.2 13.0 0.00 0.00 0.00 70 1011.2
20260510040247 53 27 6.1 16.5 0.00 0.00 0.00 70 1011.3
20260510035244 53 30 10.4 15.6 0.00 0.00 0.00 70 1011.3
20260510034257 53 40 8.7 13.9 0.00 0.00 0.00 70 1011.5
20260510033257 54 44 4.3 11.3 0.00 0.00 0.00 71 1011.6
20260510032307 54 51 7.0 16.5 0.00 0.00 0.00 71 1011.7
20260510031257 55 47 5.2 16.5 0.00 0.00 0.00 71 1011.7
20260510030248 55 38 9.6 13.9 0.00 0.00 0.00 71 1011.7
20260510025247 55 36 3.5 11.3 0.00 0.00 0.00 71 1011.7
20260510024243 55 59 7.8 13.0 0.00 0.00 0.00 71 1011.8
20260510023258 55 81 4.3 12.2 0.00 0.00 0.00 71 1011.8
20260510022246 55 53 7.0 10.4 0.00 0.00 0.00 72 1011.8
20260510021319 56 53 7.0 14.8 0.00 0.00 0.00 72 1012.0
20260510020247 56 49 2.6 11.3 0.00 0.00 0.00 73 1012.1
20260510015253 56 60 3.5 10.4 0.00 0.00 0.00 73 1012.1
20260510014307 56 46 6.1 9.6 0.00 0.00 0.00 74 1012.2
20260510013247 56 77 1.7 12.2 0.00 0.00 0.00 74 1012.3
20260510012306 56 46 4.3 12.2 0.00 0.00 0.00 74 1012.3
20260510011253 57 86 6.1 11.3 0.00 0.00 0.00 74 1012.5
20260510010247 57 46 5.2 10.4 0.00 0.00 0.00 73 1012.3
20260510005321 57 44 4.3 8.7 0.00 0.00 0.00 73 1012.3
20260510004250 57 71 4.3 9.6 0.00 0.00 0.00 73 1012.4
20260510003309 58 63 4.3 8.7 0.00 0.00 0.00 72 1012.4
20260510002258 58 49 6.1 11.3 0.00 0.00 0.00 71 1012.4
20260510001303 58 30 4.3 12.2 0.00 0.00 0.00 70 1012.6
20260510000244 58 38 4.3 13.0 0.00 0.00 0.00 70 1012.6
20260509235242 58 57 7.0 8.7 0.00 0.00 0.00 69 1012.6
20260509234256 59 44 4.3 11.3 0.00 0.00 0.00 69 1012.6
20260509233247 59 54 5.2 8.7 0.00 0.00 0.00 68 1012.6
20260509232244 59 70 5.2 8.7 0.00 0.00 0.00 68 1012.6
20260509231254 59 13 2.6 11.3 0.00 0.00 0.00 68 1012.6
20260509230244 59 90 4.3 8.7 0.00 0.00 0.00 67 1012.6
20260509225257 59 20 2.6 11.3 0.00 0.00 0.00 66 1012.6
20260509224251 59 76 3.5 7.8 0.00 0.00 0.00 66 1012.6
20260509223245 59 69 3.5 5.2 0.00 0.00 0.00 65 1012.7
20260509222306 59 32 0.9 6.1 0.00 0.00 0.00 66 1012.7
20260509221251 59 38 1.7 5.2 0.00 0.00 0.00 66 1012.7
20260509220242 59 42 2.6 4.3 0.00 0.00 0.00 66 1012.8
20260509215305 59 40 2.6 5.2 0.00 0.00 0.00 67 1012.8
20260509214259 59 69 2.6 5.2 0.00 0.00 0.00 67 1012.8
20260509213245 59 48 3.5 5.2 0.00 0.00 0.00 67 1012.7
20260509212300 59 51 2.6 7.0 0.00 0.00 0.00 67 1012.7
20260509211237 59 61 3.5 7.8 0.00 0.00 0.00 67 1012.7
20260509210252 59 50 1.7 5.2 0.00 0.00 0.00 67 1012.7
20260509205257 59 50 0.9 4.3 0.00 0.00 0.00 68 1012.7
20260509204256 59 51 1.7 6.1 0.00 0.00 0.00 68 1012.7
20260509203250 59 49 5.2 7.8 0.00 0.00 0.00 69 1012.6
20260509202247 59 47 2.6 5.2 0.00 0.00 0.00 70 1012.6
20260509201311 60 94 0.9 2.6 0.00 0.00 0.00 70 1012.4
20260509200247 61 94 0.0 0.9 0.00 0.00 0.00 69 1012.2
20260509195243 61 94 1.7 2.6 0.00 0.00 0.00 68 1012.2
20260509194256 61 94 0.0 0.0 0.00 0.00 0.00 68 1012.3
20260509193247 61 94 0.0 1.7 0.00 0.00 0.00 69 1012.3
20260509192242 62 94 0.0 0.9 0.00 0.00 0.00 68 1012.3
20260509191241 62 94 0.0 0.9 0.00 0.00 0.00 67 1012.3
20260509190311 62 94 1.7 3.5 0.00 0.00 0.00 64 1012.2
20260509185300 62 94 1.7 2.6 0.00 0.00 0.00 65 1012.2
20260509184256 62 94 0.0 0.9 0.00 0.00 0.00 66 1012.3
20260509183251 62 94 1.7 1.7 0.00 0.00 0.00 64 1012.2
20260509182251 63 94 0.9 1.7 0.00 0.00 0.00 66 1012.2
20260509181247 63 94 0.0 0.9 0.00 0.00 0.00 65 1012.2
20260509180245 64 94 0.0 1.7 0.00 0.00 0.00 61 1012.1